User: anonymous   Login
Location: Columbia
(38.9520°N, 92.3340°W)
Time: 18:34:05
(UTC-06:00)
Language:

Iridium 15 - Orbit

View from above orbital plane
View from above orbital plane
View from above satellite
View from above satellite

Ground track
Ground track

The orbit data is extracted from the following two-line orbital elements,

1 24869U 97034A   15059.37923962  .00000125  00000-0  37582-4 0  9990
2 24869 086.3990 012.8447 0002270 084.6125 028.1945 14.34213793923548
Epoch (UTC): 28 February 2015 09:06:06
Eccentricity: 0.0002270
inclination: 86.3990°
perigee height: 776 km
apogee height: 779 km
right ascension of ascending node: 12.8447°
argument of perigee: 84.6125°
revolutions per day: 14.34213793
mean anomaly at epoch: 28.1945°
orbit number at epoch: 92354

The dashed part of the orbit path shows where the satellite is in the earth's shadow,  

DLR